Location: Devils Tower National Monument
(44.5904°N, 104.7201°W)
Time: 17:57:32
(UTC-07:00)

Envisat - Pass Details

Date: 28 January 2020
Orbit: 764 x 766 km, 98.1° (Epoch: 20 February)

Event Time Altitude Azimuth Distance (km) Brightness Sun altitude
Rises 18:36:50 0° 194° (SSW) 3,216 6.5 -17.0°
Reaches altitude 10° 18:39:24 10° 205° (SSW) 2,295 5.9 -17.4°
Maximum altitude 18:43:48 29° 265° (W) 1,371 5.1 -18.2°
Drops below altitude 10° 18:48:12 10° 326° (NW) 2,309 5.8 -19.0°
Sets 18:50:49 0° 337° (NNW) 3,240 6.5 -19.4°
